www.pogodaiklimat.ru

Погода и климат >> Архив погоды >> Россия >> Красноярский край >> Верхнеимбатск


АРХИВ ПОГОДЫ в Верхнеимбатске

Время (UTC), дата Ветер
(напр.,м/с)
 
Видим.   Явления Облачность Т
(С)
Тd
(С)
f
(%)
Тe
(С)
Тes
(С)
Комфортность P
(гПа)
Po
(гПа)
Тmin
(С)
Tmax
(С)
R
(мм)
R24
(мм)
S
(см)
21 15.09 В 1 н/о 3/0
[Ac trans]
-2.1 -4.3 85 -4 -4 1014.8 1009.1
00 16.09 СВ 2 20 км 10/0
[Cs]
-0.7 -4.2 77 -4 -4 1014.6 1008.9 -2.9
03 16.09 В 1 10 км слаб. ливневой дождь 10/10 600 м
[Cb cap]
+0.2 -1.2 90 -2 -2 1014.5 1008.8
06 16.09 В 4 20 км в посл. час ливневой дождь 10/10 300 м
[Cb cap]
+2.2 +1.7 96 -3 -3 1011.7 1006.1
09 16.09 В 2 10 км слаб. ливневой дождь 10/10 300 м
[Cb cap]
+3.6 +3.1 97 0 0 1011.1 1005.5
12 16.09 В 4 4000 м слаб. морось 10/10 300 м
[St]
+4.8 +4.6 99 0 0 1010.1 1004.5 +4.8 5
15 16.09 В 3 н/о слаб. морось 10/10 300 м
[St]
+5.5 +5.0 97 +2 +2 1010.1 1004.5
18 16.09 ЮВ 3 н/о в посл. час гроза {ливн. осадки} 10/10 600 м
[Cb cap]
+6.2 +5.8 97 +3 +3 1009.4 1003.8
21 16.09 В 2 н/о 10/10 600 м
[Cb cap]
+7.2 +6.8 97 +5 +5 1008.4 1002.9
00 17.09 В 2 2000 м морось 10/10 300 м
[St]
+8.2 +7.8 97 +6 +6 1008.1 1002.6 +4.8 7
03 17.09 В 3 20 км {гроза, ливн. осадки} 10/10 300 м
[Cb cap]
+10.8 +10.4 97 +9 +9 1007.4 1001.9
06 17.09 В 4 20 км {гроза, ливн. осадки} 10/5 300 м
[Cb cap Ci fib]
+14.3 +11.3 82 +13 +14 1007.0 1001.6
09 17.09 В 4 20 км 9/3 600 м
[Cb cap Ac cast Ci fib]
+16.1 +11.5 74 +15 +16 1005.3 1000.0
12 17.09 В 4 20 км 10/4 600 м
[Cb cap Ac cast Ci fib]
+14.0 +11.2 83 +13 +13 1005.3 999.9 +16.5 2
15 17.09 В 3 н/о в посл. час гроза 10/10 600 м
[Cb cap]
+12.7 +11.4 92 +11 +11 1002.8 997.4
18 17.09 В 4 н/о {гроза} 10/0
[Cs]
+13.0 +11.2 89 +11 +11 1000.2 994.9
21 17.09 В 3
{10}
н/о 10/10 600 м
[Cb cap]
+12.8 +10.5 86 +11 +11 999.4 994.1
00 18.09 ЮВ 2 20 км {ливн. осадки} 8/8 600 м
[Cb cap]
+10.8 +8.1 83 +9 +9 1000.0 994.6 +10.8 0.8
03 18.09 ЮВ 3 20 км 9/9 <50 м
[Cb cap]
+10.6 +6.3 75 +9 +9 1002.4 996.9 +10.2
06 18.09 З 1 20 км 10/10 300 м
[Cb cap]
+11.2 +5.6 68 +11 +11 1005.0 999.5
09 18.09 ЮВ 1 20 км 9/8 600 м
[Cb cap Cs]
+13.2 +5.6 60 +14 +14 1006.6 1001.2
12 18.09 ЮВ 1 20 км 10/10 600 м
[Cb cap]
+11.2 +6.3 72 +11 +11 1007.9 1002.4 +13.2
15 18.09 ЮВ 2 н/о 8/5 600 м
[Sc Ac trans]
+9.5 +7.0 84 +8 +8 1008.8 1003.3
18 18.09 ЮВ 1 н/о 8/0
[Ac trans]
+7.8 +6.9 94 +7 +7 1009.6 1004.1
21 18.09 В 1 н/о 10/10 600 м
[Sc]
+6.8 +6.1 95 +6 +6 1009.6 1004.1
00 19.09 В 1 20 км 8/4 600 м
[Sc Ac lent Ci fib]
+5.8 +5.3 97 +4 +4 1009.3 1003.7 +5.6
03 19.09 В 3 20 км 10/10 600 м
[Cb cap]
+8.8 +7.3 90 +6 +6 1007.5 1002.0
06 19.09 В 3
{10}
10 км слаб. ливневой дождь 10/10 600 м
[Cb cap]
+9.0 +8.0 93 +6 +6 1004.6 999.1
09 19.09 В 4-10
{11}
10 км слаб. ливневой дождь 10/10 600 м
[Cb cap]
+10.3 +9.5 95 +8 +8 999.5 994.1
12 19.09 ЮВ 4
{10}
4000 м ливневой дождь 10/10 600 м
[Cb cap]
+10.6 +10.0 96 +8 +8 996.3 990.9 +10.6 10
15 19.09 ЮЗ 1
{10}
н/о {ливн. осадки} 10/10 600 м
[Cb cap]
+11.2 +10.4 95 +11 +11 997.8 992.5
18 19.09 ЮВ 1 н/о {ливн. осадки} 10/10 600 м
[Cb cap]
+11.0 +9.8 92 +11 +11 1000.3 994.9
21 19.09 ЮВ 3 н/о 10/0
[As trans]
+10.0 +9.2 95 +8 +8 1000.8 995.3
00 20.09 В 4 10 км слаб. ливневой дождь 10/8 600 м
[Cb cap As trans]
+10.4 +9.8 96 +8 +8 998.0 992.6 +10.0 2
03 20.09 В 5-11
{11}
20 км {ливн. осадки} 10/10 600 м
[Cb cap]
+12.2 +10.9 92 +10 +10 991.0 985.7
06 20.09 В 5-10
{12}
20 км {ливн. осадки} 10/10 600 м
[Cb cap]
+14.4 +11.0 80 +13 +13 988.0 982.7
09 20.09 В 5-11
{14}
20 км 8/8 600 м
[Cu hum]
+17.4 +10.3 63 +17 +17 984.2 979.0
12 20.09 ЮВ 3
{11}
20 км {гроза, ливн. осадки} 6/6 600 м
[Cu hum]
+12.9 +8.3 74 +12 +12 985.6 980.3 +17.5 3
15 20.09 ЮВ 3
{12}
н/о 10/10 600 м
[Sc]
+11.2 +4.3 62 +10 +10 987.1 981.7
18 20.09 ЮВ 3-10
{15}
н/о {ливн. осадки} 10/10 600 м
[Sc]
+8.6 +4.8 77 +6 +6 988.6 983.2
21 20.09 Ю 3-11
{13}
н/о слаб. ливневой дождь 10/10 600 м
[Cb cap]
+7.0 +5.2 88 +4 +4 991.7 986.3
00 21.09 Ю 2
{11}
20 км {ливн. осадки} 10/10 600 м
[Cb cap]
+8.2 +3.6 73 +6 +6 995.3 989.9 +7.0 0.8
03 21.09 ЮЗ 3
{10}
20 км 10/10 600 м
[Cb cap]
+8.1 +4.7 79 +5 +5 997.9 992.5
06 21.09 ЮЗ 3
{11}
10 км слаб. ливневой дождь 10/10 600 м
[Cb cap]
+8.0 +3.6 74 +5 +5 1001.4 995.9
09 21.09 ЮЗ 3
{12}
20 км {ливн. осадки} 4/3 600 м
[Cu med, cong Ac trans Ci fib]
+10.7 +1.1 51 +9 +10 1004.7 999.2
12 21.09 ЮЗ 2
{11}
20 км {ливн. осадки} 5/3 600 м
[Cu Sc Ac lent Ci fib]
+9.9 +0.3 51 +9 +9 1007.9 1002.4 +11.1 0.0
15 21.09 ЮВ 1 н/о 6/6 600 м
[Cu hum]
+7.4 +0.3 61 +7 +7 1009.6 1004.1
18 21.09 З 4-10
{10}
н/о 10/10 600 м
[Cb cap]
+6.6 +4.0 83 +3 +3 1011.5 1005.9
21 21.09 ЮЗ 1
{10}
н/о {ливн. осадки} ясно +3.6 +2.1 90 +2 +2 1014.8 1009.2
00 22.09 Ю 1 20 км {ливн. осадки} ясно +2.2 +1.4 94 0 0 1016.9 1011.3 +2.2 0.4
03 22.09 ЮЗ 1 20 км 3/3 600 м
[Cu hum]
+3.5 +0.6 81 +2 +4 1019.4 1013.8 +1.5
06 22.09 Ю 1 20 км 4/4 600 м
[Cu med, cong]
+8.4 +0.4 57 +8 +11 1020.4 1014.9
09 22.09 ЮВ 1 20 км 10/4 600 м
[Cu hum Cs]
+8.5 -1.2 50 +8 +10 1019.8 1014.3
12 22.09 В 2 20 км 10/0
[As op]
+6.7 -0.3 61 +5 +5 1018.6 1013.0 +10.0
15 22.09 В 3 н/о 10/0
[As trans]
+5.8 -0.8 63 +3 +3 1016.6 1011.0

 

Местоположение метеостанции Верхнеимбатск (Красноярский край, Россия): широта 63.15 долгота 87.95 высота над уровнем моря 45 м.

В архиве по умолчанию представлена погода в Верхнеимбатске за последнюю неделю. Архивные данные за месяц целиком и за предыдущие месяцы, начиная с января 2011 года, Вы можете получить, выбрав интересующий диапазон дат из раскрывающегося списка и нажав кнопку "Ввод!".


*Определитесь, кто Вы:
робот инопланетянин человек

Внимание! Время в таблицах - всемирное. Для получения местного времени необходимо прибавить поправку, которая равна 7 ч.

Смотрите также архив погоды в соседних городах и на ближайших метеорологических станциях:

Погода в Бахте (Красноярский край, Россия) (93 км)
Погода в Келлоге (Красноярский край, Россия) (113 км)
Погода в Верещагино (Красноярский край, Россия) (122 км)
Погода в Бору (Красноярский край, Россия) (203 км)
Погода в Кузьмовке (Эвенкия, Россия) (232 км)
Погода в Ворогово (Красноярский край, Россия) (251 км)
Погода в Туруханске (Красноярский край, Россия) (293 км)
Погода в Большом Пороге (Эвенкия, Россия) (294 км)
Погода в Тольке (Ямало-Ненецкий АО, Россия) (305 км)
Погода в Тутончанах (Эвенкия, Россия) (310 км)

Пояснения к столбцам:

Ветер - указаны скорость ветра в м/с - средняя за 10 мин, порывы в срок и между сроками (в фигурных скобках) и направление, откуда дует ветер: С - северный, СВ - северо-восточный, В - восточный, ЮВ - юго-восточный, Ю - южный, ЮЗ - юго-западный, З - западный, СЗ - северо-западный.
Видимость - горизонтальная дальность видимости в метрах или километрах. При видимости от 1 до 10 км при отсутствии осадков обычно наблюдается дымка, при ухудшении видимости до 1 км и менее - туман. В сухую погоду видимость может ухудшаться дымом, пылью или мглою.
Явления - указаны атмосферные явления, наблюдавшиеся в срок или в последний час перед сроком; фигурными скобками обозначены явления, наблюдавшиеся между сроками (за 1-3 часа до срока); квадратными скобками обозначены град или гололедные отложения с указанием их диаметра в мм.
Облачность - указаны через наклонную черту общая и нижняя облачность в баллах и высота нижней границы облаков в метрах; квадратными скобками обозначены формы облаков: Ci - перистые, Cs - перисто-слоистые, Cc - перисто-кучевые, Ac - высококучевые, As - высокослоистые, Sc - слоисто-кучевые, Ns - слоисто-дождевые, Cu - кучевые, Cb - кучево-дождевые. Подробнее классификацию облаков см. в Атласе облаков (PDF).
T - Температура воздуха - температура, измеренная на высоте 2 м над землей.
Td - Температура точки росы - температура, при понижении до которой содержащийся в воздухе водяной пар достигнет насыщения.
f - Относительная влажность воздуха - влажноcть воздуха, измеренная на высоте 2 м над землей.
Te - Эффективная температура - температура, которую ощущает одетый по сезону человек в тени. Характеристика душности погоды. При расчете учитывается влияние влажности воздуха и скорости ветра на теплоощущения человека.
Tes - Эффективная температура на солнце - температура, которую ощущает человек, с поправкой на солнечный нагрев. Характеристика знойности погоды. Зависит от высоты солнца над горизонтом, облачности и скорости ветра. Ночью, в пасмурную погоду, а также при ветре 12 м/с и более поправка равна нулю.
P - Атмосферное давление - приведенное к уровню моря атмосферное давление.
Po - Атмосферное давление - измеренное на уровне метеостанции атмосферное давление.
Tmin - Минимальная температура - минимум температуры воздуха на высоте 2 м над землей.
Tmax - Максимальная температура - максимум температуры воздуха на высоте 2 м над землей.
R - Количество осадков - Количество выпавших осадков за период времени, мм. При наведении курсора мыши на число - период времени, за который выпало указанное количество осадков.
R24 - Количество осадков - Количество выпавших осадков за 24 часа, мм.
S - Снежный покров - Высота снежного покрова, см. При наведении курсора мыши на число - состояние снежного покрова и степень покрытия местности в баллах.